sat.trackr.live / text

‹ back to catalog

STARLINK-37429

NORAD 69523 · 2026-133R

PAYLOAD ACTIVE UNKNOWN

§ Identity

Operator
Country
US
Launch date
2026-06-12
Launch site
AFETR
Launch vehicle
Mass (kg)
RCS (m²)

Purposes: comms

External: N2YO · Heavens-Above · Gunter

§ Orbital elements

Epoch: 2026-09-19T15:17:07.161216Z

Period
93.85 min
Inclination
53.1577°
Eccentricity
0.0001325
Mean motion
15.34379529 rev/d
Perigee alt
461.9 km
Apogee alt
463.7 km
Semi-major
6,840.9 km
B*
3.3692e-4
RAAN
233.6051°
Arg perigee
84.0801°
Mean anomaly
276.0353°
Rev number
1,663

§ Raw data

STARLINK-374291 69523U 26133R   26262.63688844  .00011017  00000+0  33692-3 0  99902 69523  53.1577 233.6051 0001325  84.0801 276.0353 15.34379529 16637

JSON: /api/v1/satellites/69523 · /tle

For live sub-satellite position, see the globe view (requires WebGL).

§ Visibility from observer

Set your observer location to see the next 7 days of passes ≥ 10°. The values pass through the URL so the page stays shareable.

No JS? Fill the form by hand. The geolocation button needs JavaScript.